DELTA 1 DEB, 40765

Orbit data source: Space-Track

DELTA 1 DEB, 40765 is space debris in SSO originally from a launch on Thu, 29 Jul 1976 UTC launched from the Air Force Western Test Range (AFWTR). Debris objects in space refer to the collection of defunct objects orbiting the Earth. Examples of debris include non-operational satellites, rocket bodies, and fragments generated from explosions, collisions, or faulty payload assembly.

Loading next visibility...
Identifier
40765, 1976-077GJ
Orbit
SSO
Country
Flag of USUS
Related business
Manufacturer
Unknown
Mission
Spacecraft
Bus & Motor
Unknown
Mass
Unknown
Launch date (UTC)
1976-07-29 (50 years ago)
Launch vehicle
Unknown
Launch site
Air Force Western Test Range (AFWTR)
Object type
Payload
Rocket body
Debris
Shape & HBR
Unknown shape, 0.1 m
Radar Cross Section
Medium (>0.1 m² and <1 m²)

Expand to show TLE details & history
Last TLE update: 5 days ago

TLE from 5 days ago
0 DELTA 1 DEB
1 40765U 76077GJ  26168.23592367 -.00000014  00000-0  22350-3 0  9990
2 40765 102.1646 169.7021 0029869  62.1035 298.3051 12.45453366571292
Epoch: 2026-06-17T05:39Z
TLE epoch observation values (Epoch: 2026-06-17T05:39:43.805Z)
Latitude
0.00002°
Longitude
179.27307°
Altitude
1,475.038 km
Speed
7.131 km/s
True Right ascension
11h 18m 48s
True Declination
0° 00' 00"
Sunlit
Object was in daylight at epoch
Visualization orbit readout
Latitude
Unknown
Longitude
Unknown
Altitude
Unknown
Speed
Unknown
Apparent Right ascension
Unknown
Apparent Declination
Unknown
Sunlit
N/A
Visualization observer readout
Local Sidereal Time
21:35:00
Azimuth
Unknown
Elevation
Unknown
Doppler factor
Unknown
Orbital elements
Apogee altitude
1,504.622 km
Perigee altitude
1,457.673 km
Semi-major axis
7,859.285 km
Eccentricity
0.00299
Inclination
102.1646°
RAAN
169.7021°
Arg. of periapsis
62.1035°
True anomaly
298.00322°
Mean anomaly
298.3051°
Eccentric anomaly
298.15421°
Mean motion
3.11508 °/min
Orbital period
115.57 mins
BSTAR
0.0002235
Loading maneuver chart data...
Computing Atmospheric mass density...
Loading historical data...
Loading historical data...
Loading historical data...
Loading historical data...
Loading historical data...
Loading historical data...
Loading historical data...

Documentation

Showing up to 5 results
|